• In Czech Republic
  • List of Countries
  • For 7 days
  • Water Temperature
  • Satellite Maps
  • Weather Map
  • Weather Widgets
  • user-avatar
    Login

    Hourly Weather Tretyakovka

    Today, 14 November, Wednesday

    Time Temperature Precipitation Wind Pressure Humidity
    00:00 -9°C° 0 mm 4 mps 764 mmHg 30%
    01:00 -9°C° 0 mm 4 mps 764 mmHg 31%
    02:00 -9°C° 0 mm 4 mps 763 mmHg 32%
    03:00 -9°C° 0 mm 4 mps 763 mmHg 38%
    04:00 -10°C° 0 mm 4 mps 763 mmHg 39%
    05:00 -10°C° 0 mm 4 mps 762 mmHg 40%
    06:00 -10°C° 0 mm 4 mps 762 mmHg 41%
    07:00 -10°C° 0 mm 4 mps 762 mmHg 40%
    08:00 -9°C° 0 mm 4 mps 761 mmHg 40%
    09:00 -9°C° 0 mm 4 mps 761 mmHg 40%
    10:00 -8°C° 0 mm 5 mps 761 mmHg 38%
    11:00 -7°C° 0 mm 5 mps 760 mmHg 36%
    12:00 -6°C° 0 mm 5 mps 760 mmHg 35%
    13:00 -5°C° 0 mm 5 mps 760 mmHg 36%
    14:00 -5°C° 0 mm 5 mps 759 mmHg 37%
    15:00 -3°C° 0 mm 4 mps 759 mmHg 38%
    16:00 -4°C° 0 mm 4 mps 759 mmHg 42%
    17:00 -5°C° 0 mm 4 mps 759 mmHg 46%
    18:00 -5°C° 0 mm 4 mps 759 mmHg 51%
    19:00 -5°C° 0 mm 4 mps 759 mmHg 53%
    20:00 -5°C° 0 mm 4 mps 759 mmHg 55%
    21:00 -5°C° 0 mm 4 mps 759 mmHg 57%
    22:00 -5°C° 0 mm 4 mps 759 mmHg 58%
    23:00 -7°C° 0 mm 4 mps 759 mmHg 58%

    Tomorrow, 15 November, Thursday

    Time Temperature Precipitation Wind Pressure Humidity
    00:00 -6°C° 0 mm 3 mps 759 mmHg 58%
    01:00 -6°C° 0 mm 3 mps 759 mmHg 56%
    02:00 -6°C° 0 mm 3 mps 759 mmHg 54%
    03:00 -6°C° 0 mm 3 mps 759 mmHg 52%
    04:00 -6°C° 0 mm 3 mps 760 mmHg 49%
    05:00 -7°C° 0 mm 3 mps 760 mmHg 47%
    06:00 -7°C° 0 mm 3 mps 760 mmHg 45%
    07:00 -6°C° 0 mm 3 mps 760 mmHg 43%
    08:00 -6°C° 0 mm 3 mps 760 mmHg 41%
    09:00 -6°C° 0 mm 3 mps 761 mmHg 39%
    10:00 -5°C° 0 mm 3 mps 761 mmHg 37%
    11:00 -4°C° 0 mm 3 mps 761 mmHg 36%
    12:00 -2°C° 0 mm 3 mps 761 mmHg 34%
    13:00 -2°C° 0 mm 3 mps 761 mmHg 34%
    14:00 -1°C° 0 mm 3 mps 761 mmHg 33%
    15:00 -1°C° 0 mm 3 mps 761 mmHg 33%
    16:00 -2°C° 0 mm 3 mps 761 mmHg 33%
    17:00 -4°C° 0 mm 3 mps 762 mmHg 34%
    18:00 -5°C° 0 mm 3 mps 762 mmHg 34%
    19:00 -5°C° 0 mm 3 mps 762 mmHg 34%
    20:00 -4°C° 0 mm 2 mps 762 mmHg 33%
    21:00 -4°C° 0 mm 2 mps 763 mmHg 32%
    22:00 -4°C° 0 mm 2 mps 763 mmHg 32%
    23:00 -5°C° 0 mm 2 mps 763 mmHg 32%

    Day after tomorrow, 16 November, Friday

    Time Temperature Precipitation Wind Pressure Humidity
    00:00 -5°C° 0 mm 2 mps 763 mmHg 32%
    01:00 -5°C° 0 mm 2 mps 763 mmHg 33%
    02:00 -5°C° 0 mm 2 mps 763 mmHg 33%
    03:00 -5°C° 0 mm 2 mps 764 mmHg 34%
    04:00 -5°C° 0 mm 2 mps 764 mmHg 34%
    05:00 -5°C° 0 mm 2 mps 764 mmHg 34%
    06:00 -6°C° 0 mm 3 mps 764 mmHg 34%
    07:00 -6°C° 0 mm 3 mps 764 mmHg 33%
    08:00 -6°C° 0 mm 3 mps 764 mmHg 31%
    09:00 -6°C° 0 mm 3 mps 765 mmHg 30%
    10:00 -5°C° 0 mm 3 mps 765 mmHg 27%
    11:00 -2°C° 0 mm 3 mps 765 mmHg 25%
    12:00 -1°C° 0 mm 3 mps 765 mmHg 22%
    13:00 -1°C° 0 mm 3 mps 765 mmHg 23%
    14:00 -1°C° 0 mm 3 mps 765 mmHg 23%
    15:00 -1°C° 0 mm 3 mps 764 mmHg 24%
    16:00 -2°C° 0 mm 3 mps 764 mmHg 26%
    17:00 -4°C° 0 mm 3 mps 764 mmHg 27%
    18:00 -5°C° 0 mm 3 mps 764 mmHg 29%
    19:00 -5°C° 0 mm 3 mps 764 mmHg 29%
    20:00 -4°C° 0 mm 2 mps 764 mmHg 28%
    21:00 -4°C° 0 mm 2 mps 764 mmHg 28%
    22:00 -4°C° 0 mm 2 mps 764 mmHg 27%
    23:00 -4°C° 0 mm 2 mps 764 mmHg 27%

    17 November, Saturday

    Time Temperature Precipitation Wind Pressure Humidity
    00:00 -4°C° 0 mm 2 mps 764 mmHg 26%
    01:00 -5°C° 0 mm 2 mps 764 mmHg 26%
    02:00 -5°C° 0 mm 2 mps 764 mmHg 25%
    03:00 -5°C° 0 mm 2 mps 764 mmHg 25%
    04:00 -5°C° 0 mm 2 mps 763 mmHg 25%
    05:00 -5°C° 0 mm 2 mps 763 mmHg 24%
    06:00 -5°C° 0 mm 2 mps 763 mmHg 24%
    07:00 -5°C° 0 mm 2 mps 763 mmHg 23%
    08:00 -5°C° 0 mm 2 mps 762 mmHg 22%
    09:00 -3°C° 0 mm 1 mps 762 mmHg 22%
    10:00 -1°C° 0 mm 1 mps 762 mmHg 20%
    11:00 0°C° 0 mm 1 mps 762 mmHg 18%
    12:00 +1°C° 0 mm 1 mps 761 mmHg 16%
    13:00 +1°C° 0 mm 1 mps 761 mmHg 17%
    14:00 +1°C° 0 mm 1 mps 760 mmHg 19%
    15:00 +1°C° 0 mm 1 mps 759 mmHg 20%
    16:00 0°C° 0 mm 1 mps 759 mmHg 20%
    17:00 -1°C° 0 mm 1 mps 758 mmHg 21%
    18:00 -1°C° 0 mm 1 mps 758 mmHg 21%
    19:00 -1°C° 0 mm 1 mps 757 mmHg 21%
    20:00 -2°C° 0 mm 1 mps 757 mmHg 21%
    21:00 -2°C° 0 mm 1 mps 756 mmHg 21%
    22:00 -4°C° 0 mm 2 mps 756 mmHg 21%
    23:00 -4°C° 0 mm 2 mps 755 mmHg 22%

    18 November, Sunday

    Time Temperature Precipitation Wind Pressure Humidity
    00:00 -4°C° 0 mm 2 mps 754 mmHg 22%
    01:00 -5°C° 0 mm 3 mps 754 mmHg 22%
    02:00 -6°C° 0 mm 3 mps 753 mmHg 23%
    03:00 -6°C° 0 mm 3 mps 752 mmHg 23%
    04:00 -6°C° 0 mm 3 mps 752 mmHg 24%
    05:00 -6°C° 0 mm 3 mps 751 mmHg 24%
    06:00 -7°C° 0 mm 4 mps 750 mmHg 25%
    07:00 -7°C° 0 mm 4 mps 750 mmHg 25%
    08:00 -5°C° 0 mm 4 mps 749 mmHg 25%
    09:00 -5°C° 0 mm 4 mps 749 mmHg 26%
    10:00 -4°C° 0 mm 4 mps 749 mmHg 26%
    11:00 -3°C° 0 mm 4 mps 749 mmHg 26%
    12:00 -2°C° 0 mm 4 mps 749 mmHg 27%
    13:00 -2°C° 0 mm 4 mps 748 mmHg 28%
    14:00 -1°C° 0 mm 3 mps 748 mmHg 29%
    15:00 -1°C° 0 mm 3 mps 748 mmHg 30%
    16:00 -2°C° 0 mm 3 mps 748 mmHg 33%
    17:00 -2°C° 0 mm 3 mps 748 mmHg 36%
    18:00 -4°C° 0 mm 3 mps 749 mmHg 40%
    19:00 -4°C° 0 mm 3 mps 749 mmHg 41%
    20:00 -4°C° 0 mm 3 mps 749 mmHg 43%
    21:00 -5°C° 0 mm 3 mps 749 mmHg 45%
    22:00 -5°C° 0 mm 3 mps 750 mmHg 46%
    23:00 -5°C° 0 mm 3 mps 750 mmHg 48%

    19 November, Monday

    Time Temperature Precipitation Wind Pressure Humidity
    00:00 -5°C° 0 mm 3 mps 751 mmHg 49%
    01:00 -5°C° 0 mm 3 mps 751 mmHg 50%
    02:00 -5°C° 0 mm 3 mps 752 mmHg 51%
    03:00 -5°C° 0 mm 3 mps 752 mmHg 53%
    04:00 -4°C° 0 mm 3 mps 753 mmHg 53%
    05:00 -4°C° 0 mm 3 mps 753 mmHg 53%
    06:00 -4°C° 0 mm 3 mps 754 mmHg 53%
    07:00 -4°C° 0 mm 3 mps 755 mmHg 52%
    08:00 -4°C° 0 mm 3 mps 755 mmHg 51%
    09:00 -4°C° 0 mm 3 mps 756 mmHg 50%
    10:00 -3°C° 0 mm 4 mps 756 mmHg 46%
    11:00 -2°C° 0 mm 4 mps 757 mmHg 41%
    12:00 -1°C° 0 mm 4 mps 757 mmHg 37%
    13:00 -1°C° 0 mm 4 mps 758 mmHg 37%
    14:00 0°C° 0 mm 3 mps 758 mmHg 36%
    15:00 0°C° 0 mm 3 mps 758 mmHg 36%
    16:00 -1°C° 0 mm 3 mps 758 mmHg 37%
    17:00 -2°C° 0 mm 3 mps 759 mmHg 38%
    18:00 -4°C° 0 mm 3 mps 759 mmHg 39%
    19:00 -4°C° 0 mm 3 mps 759 mmHg 38%
    20:00 -4°C° 0 mm 3 mps 760 mmHg 36%
    21:00 -4°C° 0 mm 3 mps 760 mmHg 35%
    22:00 -4°C° 0 mm 3 mps 760 mmHg 35%
    23:00 -4°C° 0 mm 3 mps 760 mmHg 34%
    Show more